Home > Weather > Pensacola > Past weeks

Flag for U.S.A. Weather for the Past 2 Weeks in Pensacola, Florida, U.S.A.

Now
41 °F

Clear.


Feels Like: 37 °F
Forecast: 34 / 56 °F
Wind: 6 mph from Northeast

Location: Pensacola Regional Airport

Current Time: Feb 6, 2016 at 4:26:52 AM

Latest Report: Feb 6, 2016 at 3:53 AM


Visibility: 10 mi

Pressure: 30.33 "Hg

Humidity: 45%

Dew point: 21 °F

Location of PensacolaLocation

Historic Weather in Pensacola — Graph

°F

Pensacola Temperature Yesterday

Maximum temperature yesterday: 56 °F (at 2:53 PM)
Minimum temperature yesterday: 35 °F (at 5:53 AM)
Average temperature yesterday: 44 °F

High & Low Weather Summary for the Past Weeks

 TemperatureHumidityPressure
High76 °F (Feb 1, 11:53 AM)100% (Feb 2, 12:53 AM)30.48 "Hg (Feb 2, 12:53 AM)
Low28 °F (Jan 24, 5:53 AM)22% (Feb 5, 1:53 PM)28.89 "Hg (Jan 22, 7:00 PM)
Average54 °F75%30.07 "Hg
* Reported Jan 22 5:53 AM — Feb 6 2:53 AM, Pensacola, Weather by CustomWeather, © 2016

Note: Actual official high and low records may vary slightly from our data, if they occured in-between our weather recording intervals... More about our weather records

Advertising

Pensacola Weather History for the Previous 24 Hours

 ConditionsComfort  
Time TempWeatherWind HumidityBarometerVisibility
2:53 AM
Sat, Feb 6
43 °FClear.8 mph43%30.34 "Hg10 mi
1:53 AM42 °FClear.6 mph47%30.34 "Hg10 mi
12:53 AM40 °FClear.5 mph55%30.35 "Hg10 mi
11:53 PM
Fri, Feb 5
40 °FClear.7 mph55%30.36 "Hg10 mi
10:53 PM37 °FClear.7 mph70%30.37 "Hg10 mi
9:53 PM40 °FClear.6 mph60%30.37 "Hg10 mi
8:53 PM41 °FClear.5 mph60%30.37 "Hg10 mi
7:53 PM45 °FClear.3 mph51%30.36 "Hg10 mi
6:53 PM45 °FClear.5 mph48%30.37 "Hg10 mi
5:53 PM48 °FClear.5 mph37%30.37 "Hg10 mi
4:53 PM54 °FClear.10 mph25%30.37 "Hg10 mi
3:53 PM56 °FSunny.12 mph23%30.36 "Hg10 mi
2:53 PM56 °FSunny.14 mph22%30.35 "Hg10 mi
1:53 PM55 °FSunny.6 mph22%30.37 "Hg10 mi
12:53 PM54 °FSunny.10 mph23%30.39 "Hg10 mi
11:53 AM52 °FSunny.14 mph24%30.42 "Hg10 mi
10:53 AM50 °FSunny.12 mph28%30.45 "Hg10 mi
9:53 AM46 °FSunny.10 mph35%30.48 "Hg10 mi
8:53 AM42 °FSunny.10 mph49%30.48 "Hg10 mi
7:53 AM39 °FSunny.10 mph55%30.47 "Hg10 mi
6:53 AM36 °FSunny.9 mph62%30.44 "Hg10 mi
5:53 AM35 °FSunny.7 mph67%30.42 "Hg10 mi
4:53 AM36 °FClear.7 mph67%30.39 "Hg10 mi
Weather by CustomWeather, © 2016

See weather overviewHow to use our weather pages